Probability
0 0 0 0 0 0 0 0 0 0 0 0 0 0 0 0 0 0 0 0 0 0 0 0 0 0 0 0 0 0 0 0 0 0 0 0 0 0 0 0 0 0 0
0 0 0 0 0 0 0 0 0 0 0 0 0 0 0 0 0 0 0 0 0 0 0 0 0 0 0 0 0 0 0 0 0 0 0 0 0 0 0 0 0 0 0
0 0 0 0 0 0 0 0 0 0 0 0 0 0 0 0 0 0 0 0 0 0 0 0 0 0 0 0 0 0 0 0 0 0 0 0 0 0 0 0 0 0 0
0 0 0 0 0 0 0 0 0 0 0 0 0 0 0 0 0 0 0 0 0 0 0 0 0 0 0 0 0 0 0 0 0 0 0 0 0 0 0 0 0 0 0
0 0 0 0 0 0 0 0 0 0 0 0 0 0 0 0 0 0 0 0 0 0 0 0 0 0 0 0 0 0 0 0 0 0 0 0 0 0 0 0 0 0 0
0 0 0 0 0 0 0 0 0 0 0 0 0 0 0 0 0 0 0 0 0 0 0 0 0 0 0 0 0 0 0 0 0 0 0 0 0 0 0 0 0 0 0
0 0 0 0 0 0 0 0 0 0 0 0 0 0 0 0 0 0 0 0 0 0 0 0 0 0 0 0 0 0 0 0 0 1 1 0 0 0 0 0 0 0 0
0 0 0 0 0 0 0 0 0 0 0 0 0 0 0 0 0 0 0 0 0 0 0 0 0 0 0 0 0 0 0 0 1 2 1 0 0 0 0 0 0 0 0
0 0 0 0 0 0 0 0 0 0 0 0 0 0 0 0 0 0 0 0 0 0 0 0 0 0 0 0 0 0 0 0 1 2 1 0 0 0 0 0 0 0 0
0 0 0 0 0 0 0 0 0 0 0 0 0 0 0 0 0 0 0 0 0 0 0 0 0 0 0 0 0 0 0 0 1 1 0 0 0 0 0 0 0 0 0
0 0 0 0 0 0 0 0 0 0 0 0 0 0 0 0 0 0 0 0 0 0 0 0 0 0 0 0 0 0 0 0 0 0 0 0 0 0 0 0 0 0 0
0 0 0 0 0 0 0 0 0 0 0 0 0 0 0 0 0 0 0 0 0 0 0 0 0 0 0 0 0 0 0 0 0 0 0 0 0 0 0 0 0 0 0
0 0 0 0 0 0 0 0 0 0 0 0 0 0 0 0 0 0 0 0 0 0 0 0 0 0 0 0 0 0 0 0 0 0 0 0 0 0 0 0 0 0 0
0 0 0 0 0 0 0 0 0 0 0 0 0 0 0 0 0 0 0 0 0 0 0 0 0 0 0 0 0 0 0 0 0 0 0 0 0 0 0 0 0 0 0
0 0 0 0 0 0 0 0 0 0 0 0 0 0 0 0 0 0 0 0 0 0 0 0 0 0 0 0 0 0 0 0 0 0 0 0 0 0 0 0 0 0 0
1 1 0 0 0 0 0 0 0 0 0 0 0 0 0 0 0 0 0 0 0 0 0 0 0 0 0 0 0 0 0 0 0 0 0 0 0 0 0 0 0 0 0
2 1 1 0 0 0 0 0 0 0 0 0 0 0 0 0 0 0 0 0 0 0 0 0 0 0 0 0 0 0 0 0 0 0 0 0 0 0 0 0 0 0 0
1 1 1 1 0 0 0 0 0 0 0 0 0 0 0 0 0 0 0 0 0 0 0 0 0 0 0 0 0 0 0 0 0 0 0 0 0 0 0 0 0 0 0
0 0 1 1 0 0 0 0 0 0 0 0 0 0 0 0 0 0 0 0 0 0 0 0 0 0 0 0 0 0 0 0 0 0 0 0 0 0 0 0 0 0 0
0 0 0 0 0 0 0 0 0 0 0 0 0 0 0 0 0 0 0 0 0 0 0 0 0 0 0 0 0 0 0 0 0 0 0 0 0 0 0 0 0 0 0
0 0 0 0 0 0 0 0 0 0 0 0 0 0 0 0 0 0 0 0 0 0 0 0 0 0 0 0 0 0 0 0 0 0 0 0 0 0 0 0 0 0 0
0 0 0 0 0 0 0 0 0 0 0 0 0 0 0 0 0 0 0 0 0 0 0 0 0 0 0 0 0 0 0 0 0 0 0 0 0 0 0 0 0 0 0
0 0 0 0 0 0 0 0 0 0 0 0 0 0 0 0 0 0 0 0 0 0 0 0 0 0 0 0 0 0 0 0 0 0 0 0 0 0 0 0 0 0 0
0 0 0 0 0 0 0 0 0 0 0 0 0 0 0 0 0 0 0 0 0 0 0 0 0 0 0 0 0 0 0 0 0 0 0 0 0 0 0 0 0 0 0
0 0 0 0 0 0 0 0 0 0 0 0 0 0 0 0 0 0 0 0 0 0 0 0 0 0 0 0 0 0 0 0 0 0 0 0 0 0 0 0 0 0 0
0 0 0 0 0 0 0 0 0 0 0 0 0 0 0 0 0 0 0 0 0 0 0 0 0 0 0 0 0 0 0 0 0 0 0 0 0 0 0 0 0 0 0
Wind_Speed
2 2 2 2 2 2 2 2 2 2 3 3 3 4 4 4 3 3 1 3 4 5 7 8 9 9 9 9 9 9 8 7 7 7 7 8 8 9 9 10 10 10 11
3 2 2 2 3 3 3 2 3 3 3 2 4 4 4 4 3 3 2 2 3 4 6 8 9 9 9 9 8 8 8 8 7 7 7 7 8 9 9 9 10 10 10
3 2 2 2 2 2 2 2 3 3 3 3 4 4 3 3 3 3 3 2 2 2 3 6 7 8 8 8 8 8 8 8 8 8 8 8 8 9 10 10 11 11 11
3 2 2 2 3 2 2 2 3 3 3 4 4 4 3 3 3 2 2 2 2 2 3 5 7 8 8 8 9 9 9 9 9 9 9 9 10 10 11 11 12 12 12
3 3 2 2 3 2 3 3 3 3 4 4 4 4 3 3 2 2 2 2 3 3 3 4 6 7 7 8 9 10 10 10 10 10 10 11 11 12 12 13 13 14 14
4 3 3 3 3 2 3 3 4 3 3 4 5 4 4 2 2 2 2 2 2 3 3 4 3 4 7 8 10 10 11 12 12 11 11 12 13 13 13 14 14 14 15
4 3 3 3 3 3 3 4 3 4 3 4 3 4 3 2 2 2 2 2 3 3 4 4 3 3 3 7 9 11 12 13 13 13 13 13 14 15 15 15 15 15 15
4 4 4 3 3 3 4 4 4 3 3 3 3 3 3 3 3 3 2 2 3 4 4 4 4 3 3 3 6 11 12 13 14 14 15 15 15 16 16 16 16 16 16
4 4 4 3 3 3 3 4 4 4 3 3 2 2 2 3 4 2 2 2 3 3 3 4 4 4 4 3 4 7 11 13 14 15 15 16 16 16 17 17 17 16 16
3 3 4 3 3 3 4 4 4 3 3 3 3 2 2 3 3 5 3 3 4 4 4 4 4 3 3 3 4 7 9 11 13 15 16 16 17 17 17 17 17 17 17
3 4 4 4 4 3 3 4 4 4 3 3 3 3 3 3 2 4 6 5 5 4 4 4 3 3 3 3 3 6 10 11 13 14 16 16 16 17 17 18 18 18 18
3 4 4 4 4 3 3 3 3 4 3 3 3 3 3 3 3 4 5 6 6 5 5 4 3 3 3 4 6 9 11 12 14 15 15 16 16 17 17 18 18 18 18
2 3 3 3 3 3 3 3 3 3 3 3 3 2 3 3 3 4 5 6 7 5 4 3 3 3 5 4 5 10 10 13 14 16 16 17 17 16 17 18 18 18 18
1 2 2 3 3 3 3 3 2 2 3 3 4 3 3 3 3 4 4 6 8 6 4 4 2 3 4 4 7 10 7 12 15 16 17 17 17 17 17 18 18 18 18
2 2 2 3 3 3 3 3 2 2 2 2 3 3 3 3 3 3 3 4 5 8 8 4 4 4 4 4 8 6 7 12 15 16 17 18 18 18 18 18 18 18 19
2 2 2 3 3 3 3 3 3 3 3 3 3 3 4 3 3 3 3 4 4 6 8 6 5 5 6 7 10 8 8 14 14 16 17 18 18 19 19 19 18 19 19
2 2 2 3 3 3 3 2 3 3 3 4 4 4 4 4 4 4 3 3 4 4 8 8 5 5 6 7 7 7 7 8 8 14 17 19 19 19 18 18 18 19 19
2 2 3 3 3 3 3 3 3 3 3 4 4 4 5 5 5 4 4 4 4 5 6 10 8 6 7 7 7 8 8 8 8 14 17 19 19 19 18 18 18 18 19
2 3 3 3 3 3 3 3 3 3 3 4 4 5 5 5 5 5 5 5 5 6 5 7 9 7 6 6 7 8 9 7 9 12 15 16 18 19 18 18 18 18 18
2 2 2 2 3 3 3 3 3 3 3 4 4 4 5 5 5 5 5 5 6 6 6 7 8 7 7 6 6 7 8 6 8 9 12 14 16 18 18 19 18 18 17
2 2 2 3 3 3 3 3 3 3 4 4 4 4 5 6 7 7 6 6 6 6 6 6 7 8 7 7 7 7 9 9 8 6 7 8 9 8 9 13 15 17 17
2 2 2 3 3 3 5 7 5 4 4 5 5 5 5 5 7 10 11 11 10 8 8 7 7 8 9 8 8 8 9 9 9 5 7 9 7 8 8 6 13 18 17
2 2 3 3 3 4 7 7 7 5 5 5 5 5 5 5 6 6 9 11 10 11 12 9 9 9 10 9 9 10 10 10 10 9 9 10 7 8 8 10 18 18 18
2 3 3 3 3 4 7 7 7 5 5 5 5 5 6 6 7 8 8 8 7 7 9 7 7 8 8 8 8 10 10 11 10 7 7 10 9 9 9 8 14 17 17
3 3 3 3 4 5 7 8 7 4 4 5 5 5 6 6 10 12 9 9 9 8 9 11 12 12 14 15 12 8 7 8 9 7 5 7 8 9 9 8 8 14 17
3 3 4 3 4 4 7 8 8 4 5 5 5 5 7 9 11 12 8 8 9 9 8 8 9 10 9 10 12 7 6 7 8 8 5 6 7 7 8 6 6 7 9
Wind_Direction
11 10 3 7 356 351 347 331 324 316 310 307 302 297 292 289 288 293 290 259 260 270 283 291 299 299 297 299 300 300 300 301 302 299 296 293 293 291 291 287 283 281 279
17 16 11 12 356 354 347 335 328 328 313 308 302 298 292 290 291 293 290 286 273 279 293 301 304 306 306 305 306 307 306 304 303 303 301 298 295 296 294 295 290 284 283
20 22 17 9 347 344 341 343 334 329 324 318 310 301 295 291 294 299 313 324 324 326 324 324 325 322 316 314 314 313 315 314 312 311 307 303 299 295 294 291 291 289 284
19 24 22 4 349 351 358 355 344 337 330 323 313 305 301 294 293 310 338 344 339 345 345 344 340 333 331 332 329 325 321 317 315 314 311 309 304 298 294 291 288 288 287
21 25 18 4 0 3 358 352 350 343 332 325 310 301 301 299 300 331 339 348 355 357 353 354 342 336 333 329 331 330 328 323 320 317 314 310 305 300 296 293 291 287 287
21 25 24 8 2 10 1 353 343 338 330 321 310 307 297 298 332 347 348 352 360 352 350 349 340 339 342 335 331 329 327 323 322 320 316 312 308 302 298 295 292 290 288
19 27 20 10 7 10 1 350 343 336 339 334 322 320 313 303 340 338 344 346 350 352 353 347 341 344 335 334 332 331 327 323 323 322 322 319 312 307 300 294 292 290 290
14 18 17 7 4 3 3 356 351 341 342 355 337 321 321 322 346 323 332 348 347 343 340 336 334 334 334 330 340 334 325 323 323 322 321 319 315 311 307 300 293 291 290
17 15 11 9 3 5 358 351 350 350 338 340 357 338 320 306 321 308 324 336 342 330 329 329 334 336 331 331 322 329 327 322 321 321 320 317 315 313 310 309 305 298 294
15 17 14 13 14 11 6 357 1 354 347 337 339 341 316 308 308 308 316 338 336 326 325 323 326 327 329 318 313 323 326 324 324 322 320 317 313 311 310 308 306 302 298
17 16 20 20 21 16 10 4 2 7 5 354 349 336 328 320 314 290 300 316 321 313 313 311 313 318 321 319 316 326 325 322 321 320 319 317 314 312 310 309 306 305 302
13 17 22 22 17 13 11 9 7 9 5 0 354 351 339 324 322 307 296 304 303 305 305 308 314 319 321 323 324 329 328 324 321 319 318 316 314 313 311 308 308 305 304
10 4 9 13 11 6 8 10 11 3 0 357 349 340 334 325 319 307 302 302 300 295 295 307 317 331 328 330 325 329 326 324 322 320 318 317 314 312 310 308 307 306 304
7 11 10 10 5 358 358 3 3 349 356 356 344 340 332 323 321 313 304 306 305 299 296 296 311 326 322 320 322 326 321 323 320 317 316 314 313 312 310 307 306 306 305
2 13 8 1 357 350 350 352 353 345 349 341 328 325 320 316 314 313 311 304 299 301 302 305 316 321 323 321 321 320 317 320 317 315 314 312 311 311 308 306 306 304 304
8 1 360 353 348 349 350 350 347 339 340 330 321 322 320 315 315 318 311 308 299 292 293 304 310 316 324 321 320 318 313 315 311 311 310 309 309 308 307 306 306 305 305
355 350 343 340 337 336 339 340 334 330 328 325 324 326 325 323 318 318 316 313 306 298 290 297 305 315 316 314 313 312 309 304 304 308 308 308 307 307 307 306 306 305 304
352 346 343 339 336 333 331 327 322 327 330 331 327 325 321 321 319 317 317 314 308 302 292 296 303 311 310 312 312 313 313 311 307 307 308 309 309 307 307 306 304 304 303
349 346 341 333 327 322 318 317 319 326 326 322 320 319 318 319 318 319 319 314 310 310 303 296 299 306 306 309 309 308 306 304 307 310 311 309 308 308 307 307 307 306 304
335 331 328 322 322 320 318 321 328 328 323 319 318 317 317 315 312 313 312 309 307 305 302 297 297 301 303 304 304 308 309 306 305 307 308 310 309 308 307 305 305 303 301
332 325 325 326 326 320 319 324 323 319 317 314 315 314 313 313 313 313 310 310 309 303 301 299 297 300 303 310 310 309 307 307 299 300 304 304 306 303 302 300 302 303 301
326 329 326 326 324 321 326 325 322 316 311 307 307 305 302 301 312 314 311 310 307 303 301 297 294 296 301 306 309 307 307 308 303 311 312 303 301 299 301 295 305 310 308
322 322 318 320 314 316 321 321 323 317 310 303 302 303 306 311 309 305 305 305 305 303 299 294 293 294 298 304 305 303 302 301 298 306 308 299 300 296 298 302 306 307 310
309 306 309 311 309 312 316 318 322 320 309 303 300 299 301 304 307 309 305 302 298 299 299 297 291 293 298 302 299 299 302 301 295 296 302 295 300 300 302 299 303 307 313
304 304 302 305 304 307 311 314 318 314 307 307 306 305 303 300 305 310 308 306 306 305 308 305 303 304 306 309 310 308 306 304 300 301 307 296 301 306 299 293 301 314 316
289 301 302 303 298 300 304 309 312 307 304 306 306 305 302 303 306 310 308 304 303 307 311 313 310 309 308 307 312 307 301 297 298 298 310 308 302 313 304 296 307 315 314